Change the Weather History Date:

Wednesday, May 8, 2013

  Actual Average Record
Temperature  
Mean Temperature 73 °F 72 °F  
Max Temperature 85 °F 86 °F 103 °F (2011)
Min Temperature 60 °F 59 °F 36 °F (1917)
Degree Days  
Heating Degree Days 0 1  
Month to date heating degree days 32 8  
Since 1 July heating degree days 1919 2314  
Cooling Degree Days 8 8  
Month to date cooling degree days 27 58  
Year to date cooling degree days 276 214  
Growing Degree Days 22 (Base 50)    
Moisture  
Dew Point 59 °F    
Average Humidity 61    
Maximum Humidity 78    
Minimum Humidity 44    
Precipitation  
Precipitation 0.00 in 0.07 in 1.62 in (1940)
Month to date precipitation 0.10 0.57  
Year to date precipitation 2.91 5.77  
Sea Level Pressure  
Sea Level Pressure 29.87 in    
Wind  
Wind Speed 11 mph (SSE)    
Max Wind Speed 21 mph    
Max Gust Speed 26 mph    
Visibility 10 miles    
Events      
T = Trace of Precipitation, MM = Missing Value Source: NWS Daily Summary

Daily Weather History Graph

Daily Weather History Graph

Search for Another Location

Airport or City:

Trip Planner

Search our weather history database for the weather conditions in past years. The results will help you decide how hot, cold, wet, or windy it might be!

Date:

Astronomy

May. 08, 2013 Rise Set
Actual Time 6:50 AM CDT 8:26 PM CDT
Civil Twilight 6:24 AM CDT 8:52 PM CDT
Nautical Twilight 5:53 AM CDT 9:24 PM CDT
Astronomical Twilight 5:20 AM CDT 9:57 PM CDT
Moon 5:55 AM CDT (5/8) 7:29 PM CDT (5/8)
Length of Visible Light 14h 28m
Length of Day
13h 35m
Waning Crescent, 2% of the Moon is Illuminated
May 8
Waning Crescent
May 9
New
May 17
First Quarter
May 24
Full
May 31
Last Quarter

Hourly Weather History & Observations

Time (CDT) Temp. Heat Index Dew Point Humidity Pressure Visibility Wind Dir Wind Speed Gust Speed Precip Events Conditions
12:51 AM 69.1 °F - 48.0 °F 47% 29.88 in 10.0 mi SSW 6.9 mph - N/A   Clear
1:51 AM 72.0 °F - 57.9 °F 61% 29.86 in 10.0 mi South 5.8 mph - N/A   Clear
2:51 AM 71.1 °F - 59.0 °F 66% 29.85 in 10.0 mi South 6.9 mph - N/A   Clear
3:51 AM 66.0 °F - 55.9 °F 70% 29.86 in 10.0 mi ESE 3.5 mph - N/A   Clear
4:51 AM 64.0 °F - 55.0 °F 73% 29.86 in 10.0 mi East 4.6 mph - N/A   Clear
5:51 AM 61.0 °F - 51.1 °F 70% 29.86 in 10.0 mi ESE 6.9 mph - N/A   Clear
6:51 AM 60.1 °F - 53.1 °F 78% 29.88 in 10.0 mi East 4.6 mph - N/A   Scattered Clouds
7:01 AM 62.6 °F - 53.6 °F 72% 29.94 in 10.0 mi ESE 5.8 mph - N/A   Mostly Cloudy
7:51 AM 66.0 °F - 57.9 °F 75% 29.88 in 10.0 mi SSE 4.6 mph - N/A   Overcast
8:51 AM 70.0 °F - 62.1 °F 76% 29.89 in 10.0 mi South 12.7 mph 19.6 mph N/A   Overcast
9:51 AM 70.0 °F - 62.1 °F 76% 29.91 in 10.0 mi South 13.8 mph 20.7 mph N/A   Overcast
10:51 AM 71.1 °F - 62.1 °F 73% 29.93 in 10.0 mi South 13.8 mph 21.9 mph N/A   Overcast
11:51 AM 72.0 °F - 62.1 °F 71% 29.93 in 10.0 mi South 11.5 mph - N/A   Overcast
12:51 PM 73.0 °F - 62.1 °F 68% 29.93 in 10.0 mi South 13.8 mph 20.7 mph N/A   Overcast
1:51 PM 73.9 °F - 62.1 °F 66% 29.90 in 10.0 mi South 12.7 mph - N/A   Overcast
2:00 PM 75.2 °F - 62.6 °F 65% 29.95 in 10.0 mi South 12.7 mph - N/A   Overcast
2:08 PM 75.2 °F - 62.6 °F 65% 29.94 in 10.0 mi South 12.7 mph 19.6 mph N/A   Overcast
2:51 PM 78.1 °F - 62.1 °F 58% 29.87 in 10.0 mi South 13.8 mph 23.0 mph N/A   Mostly Cloudy
3:51 PM 82.0 °F 82.7 °F 61.0 °F 49% 29.84 in 10.0 mi SSE 15.0 mph - N/A   Partly Cloudy
4:51 PM 82.9 °F 83.2 °F 60.1 °F 46% 29.82 in 10.0 mi SSE 16.1 mph 23.0 mph N/A   Clear
5:51 PM 84.0 °F 84.0 °F 60.1 °F 44% 29.78 in 10.0 mi SE 16.1 mph 24.2 mph N/A   Clear
6:51 PM 82.0 °F 82.4 °F 60.1 °F 47% 29.78 in 10.0 mi SSE 17.3 mph 24.2 mph N/A   Clear
7:51 PM 79.0 °F - 61.0 °F 54% 29.79 in 10.0 mi SSE 15.0 mph 24.2 mph N/A   Clear
8:51 PM 75.9 °F - 61.0 °F 60% 29.81 in 10.0 mi SSE 13.8 mph 21.9 mph N/A   Clear
9:51 PM 73.9 °F - 61.0 °F 64% 29.83 in 10.0 mi SSE 9.2 mph - N/A   Clear
10:51 PM 73.9 °F - 61.0 °F 64% 29.85 in 10.0 mi SSE 5.8 mph - N/A   Clear
11:51 PM 73.9 °F - 62.1 °F 66% 29.85 in 10.0 mi SSE 6.9 mph - N/A   Clear